Location: Byhalia Creek
(34.8270°N, 89.8040°W)
Time: 08:07:50
(UTC+00:00)

Meteor 2-10 Rocket - Pass Details

Date: 22 April 2026
Orbit: 732 x 882 km, 81.2° (Epoch: 15 May)

Event Time Altitude Azimuth Distance (km) Brightness Sun altitude
Rises 09:24:38 0° 356° (N) 3,209 7.1 -22.1°
Reaches altitude 10° 09:26:59 10° 0° (N) 2,298 6.4 -21.7°
Maximum altitude 09:32:05 59° 80° (E) 900 4.1 -20.8°
Drops below altitude 10° 09:37:21 10° 160° (SSE) 2,377 5.9 -19.9°
Sets 09:39:49 0° 164° (SSE) 3,328 6.7 -19.4°
